Location: Newark
(46.1453°N, 5.8006°E)
Time: 02:36:17
(UTC+00:00)

N. Korean satellite - Visible Passes

Search period start: 01 October 2020 00:00
Search period end: 11 October 2020 00:00
Orbit: 455 x 503 km, 97.2° (Epoch: 30 September)

Date Brightness Start Highest point End Pass type
(mag) Time Alt. Az. Time Alt. Az. Time Alt. Az.
01 Oct 9.8 04:18:26 10° NE 04:20:51 17° E 04:23:12 10° SE visible
03 Oct 7.6 04:58:47 10° NNE 05:02:18 51° E 05:05:44 10° S visible
04 Oct 9.2 04:33:08 10° NE 04:36:08 24° E 04:39:04 10° SSE visible
05 Oct 10.0 04:08:15 10° ENE 04:09:51 13° E 04:11:26 10° ESE visible
07 Oct 8.3 04:48:00 10° NNE 04:51:20 37° E 04:54:36 10° SSE visible
08 Oct 9.7 04:22:34 10° NE 04:25:06 18° E 04:27:36 10° SE visible
10 Oct 7.2 05:02:58 10° NNE 05:06:28 58° E 05:09:53 10° S visible
